User: anonymous   Login
Location: Ivrea
(45.4365°N, 7.8791°E)
Time: 20:36:40
(UTC+01:00)
Language:

UKube-1 - Orbit

View from above orbital plane
View from above orbital plane
View from above satellite
View from above satellite

Ground track
Ground track

The orbit data is extracted from the following two-line orbital elements,

1 40074U 14037F   24340.59472283  .00017346  00000-0  14117-2 0  9990
2 40074  98.3581 281.8120 0001950 137.8754 222.2617 14.99609746564410
Epoch (UTC): 05 December 2024 14:16:24
Eccentricity: 0.0001950
inclination: 98.3581°
perigee height: 567 km
apogee height: 569 km
right ascension of ascending node: 281.8120°
argument of perigee: 137.8754°
revolutions per day: 14.99609746
mean anomaly at epoch: 222.2617°
orbit number at epoch: 56441

The dashed part of the orbit path shows where the satellite is in the earth's shadow,  

DLR